User: anonymous   Login
Location: Caserta
(41.0670°N, 14.3330°E)
Time: 17:55:11
(UTC+02:00)
Language:

STARLINK-1390 - Orbit

View from above orbital plane
View from above orbital plane
View from above satellite
View from above satellite

Ground track
Ground track

The orbit data is extracted from the following two-line orbital elements,

1 45550C 20025V   21164.45606097 -.00001802  00000-0 -12075-3 0  1644
2 45550  53.0570 313.9396 0001553 110.9029 340.0352 15.06396075    11
Epoch (UTC): 13 June 2021 10:56:43
Eccentricity: 0.0001553
inclination: 53.0570°
perigee height: 546 km
apogee height: 548 km
right ascension of ascending node: 313.9396°
argument of perigee: 110.9029°
revolutions per day: 15.06396075
mean anomaly at epoch: 340.0352°
orbit number at epoch: 1

The dashed part of the orbit path shows where the satellite is in the earth's shadow,  

DLR